Regional Weather Roundup
Issued by NWS

Home | Current Version | Previous Version | Graphics & Text | Print | Product List | Glossary On
Versions: 1 2 3 4 5 6 7 8 9 10 11 12 13 14 15 16 17 18 19 20 21 22 23 24 25 26 27 28 29 30 31 32 33 34 35 36 37 38 39 40 41 42 43 44 45 46 47 48 49 50
000
ASUS44 KMEG 270910
RWRTN
TENNESSEE HOURLY STATE WEATHER ROUNDUP
NATIONAL WEATHER SERVICE MEMPHIS TN
300 AM CST MON FEB 27 2017

TNZ002-004-019-021-049-052-054-088>092-271000-
WEST TENNESSEE

CITY           SKY/WX    TMP DP  RH WIND       PRES   REMARKS
MEMPHIS INTL   LGT RAIN  49  44  83 SE13      30.09F
NWS MEMPHIS      N/A     47 N/A N/A MISG        N/A
JACKSON        RAIN      49  45  86 S13       30.15F
UNION CITY     CLOUDY    46  46 100 CALM      30.11F
PARIS          CLOUDY    43  41  93 SE5       30.14S
HUNTINGDON     MOCLDY    48  45  87 S6        30.14S
$$

TNZ008-025-027-028-033-062-065-066-271000-
NORTH MIDDLE TENNESSEE

CITY           SKY/WX    TMP DP  RH WIND       PRES   REMARKS
NASHVILLE      CLOUDY    47  35  63 VRB3      30.21R
PORTLAND       CLOUDY    45  43  93 CALM      30.21F
CLARKSVILLE    LGT RAIN  45  41  86 SE5       30.17F
SMYRNA         CLOUDY    47  32  56 NW3       30.22S
COOKEVILLE     MOCLDY    45  32  61 CALM      30.19S
GALLATIN       CLOUDY    48  41  76 NW7       30.23F
CROSSVILLE     CLOUDY    41  28  60 CALM      30.21S
$$

TNZ061-075-076-078-094-096-097-271000-
SOUTH MIDDLE TENNESSEE

CITY           SKY/WX    TMP DP  RH WIND       PRES   REMARKS
FAYETTEVILLE   PTCLDY    50  27  40 SE5       30.16S
TULLAHOMA      CLEAR     48  19  32 SE3       30.18S
WINCHESTER     CLEAR     52  21  30 SE9       30.18R
MCMINNVILLE    CLEAR     43  32  65 CALM      30.18S
COLUMBIA       CLEAR     46  30  53 CALM      30.16S
SHELBYVILLE    CLEAR     46  37  71 N6        30.19S
$$

TNZ017-018-042-046-047-271000-
NORTHEAST TENNESSEE

CITY           SKY/WX    TMP DP  RH WIND       PRES   REMARKS
TRI CITIES     PTCLDY    32  23  69 CALM      30.25S
ELIZABETHTON   MOCLDY    37  23  56 CALM      30.25S
$$

TNZ012-013-036-069-073-074-271000-
CENTRAL EAST TENNESSEE

CITY           SKY/WX    TMP DP  RH WIND       PRES   REMARKS
KNOXVILLE      MOCLDY    39  26  59 N6        30.23R WCI  35
OAK RIDGE      CLOUDY    38  27  64 CALM      30.26R
GATLINBURG     CLEAR     32  25  74 CALM      30.23S
MORRISTOWN     MOCLDY    39  23  52 N3        30.23R
JACKSBORO      CLOUDY    36  30  80 CALM      30.27S
$$

TNZ083-085-099-271000-
SOUTHEAST TENNESSEE

CITY           SKY/WX    TMP DP  RH WIND       PRES   REMARKS
CHATTANOOGA    CLOUDY    44  36  73 N3        30.23R
$$

SKY/WX REPORTED AS FAIR MEANS FEW OR NO CLOUDS BELOW
12 THOUSAND FEET.





USA.gov is the U.S. government's official web portal to all federal, state and local government web resources and services.